[[{"header":{"parameterUnit":"m.s-1","parameterCategory":1,"la1":30.2991,"la2":30.254,"lo1":-89.0895,"lo2":-89.0444,"dy":0.0017,"dx":0.0017,"nx":28,"ny":28,"refTime":"2025-01-17T03:00:00:Z","depth":0,"parameterNumber":2,"parameterNumberName":"U-component_of_WINDS"},"data":[0,0,0,0,0,0,0,0,0,0,0,0,0,0,0,0,0,0,0,0,0,0,0,0,0,0,0,0,0,0,0,0,0,0,0,0,0,0,0,0,0,0,0,0,0,0,0,0,0,0,0,0,0,0,0,0,0,0,-2.364,-2.364,0,-2.3616,-2.3616,-2.3615,-2.3599,-2.3599,-2.3599,-2.3599,-2.3575,-2.3575,-2.3575,0,0,0,0,0,0,0,0,0,0,0,0,0,-2.3674,-2.3674,-2.364,-2.364,-2.3639,-2.3616,-2.3616,-2.3615,-2.3599,-2.3599,-2.3599,-2.3598,-2.3576,-2.3575,-2.3574,0,0,0,0,0,0,0,0,0,0,0,0,0,-2.3656,-2.3673,-2.364,-2.3628,-2.3627,-2.3616,-2.3616,-2.3615,-2.3599,-2.3599,-2.3599,-2.3598,-2.3576,-2.3575,-2.3574,-2.3574,0,0,-2.3572,-2.3572,0,0,0,0,0,0,0,0,-2.3657,-2.3654,-2.363,-2.3629,-2.3628,-2.361,-2.3619,-2.3601,-2.3599,-2.361,-2.3599,-2.3598,-2.3587,-2.3586,-2.3582,-2.3573,-2.3572,-2.3572,-2.3572,-2.3571,-2.3571,0,0,0,0,0,0,0,-2.3658,-2.3655,-2.363,-2.363,-2.3628,-2.3625,-2.3622,-2.3616,-2.36,-2.3609,-2.3607,-2.3605,-2.3587,-2.3582,-2.3581,-2.3571,-2.3572,-2.3571,-2.3571,-2.3571,-2.3563,-2.3564,0,0,0,0,0,0,-2.3661,-2.3657,-2.3631,-2.363,-2.3642,-2.3625,-2.3621,-2.3616,-2.36,-2.3597,-2.3605,-2.3604,-2.3584,-2.3582,-2.358,-2.358,-2.3571,-2.3571,-2.357,-2.3563,-2.3564,-2.3564,0,0,0,0,0,0,-2.3662,-2.3659,-2.3632,-2.3643,-2.3639,-2.3624,-2.3618,-2.3616,-2.3611,-2.3597,-2.3594,-2.3603,-2.3583,-2.3581,-2.3576,-2.3579,-2.357,-2.357,-2.3563,-2.3563,-2.3564,-2.3578,0,0,0,0,0,0,-2.3663,-2.3659,-2.3658,-2.3643,-2.3639,-2.3627,-2.3618,-2.3615,-2.361,-2.3609,-2.3595,-2.3592,-2.3583,-2.3577,-2.3575,-2.3577,-2.3569,-2.3563,-2.3563,-2.3564,-2.3577,-2.3579,-2.358,0,0,0,0,0,-2.3664,-2.3662,-2.3658,-2.3655,-2.3637,-2.3628,-2.3625,-2.3614,-2.361,-2.3609,-2.3601,-2.3593,-2.3579,-2.3577,-2.3574,-2.3576,-2.3562,-2.3563,-2.3564,-2.3577,-2.3579,-2.358,0,0,0,0,0,0,-2.3678,-2.366,-2.3655,-2.3648,-2.364,-2.3625,-2.3623,-2.3616,-2.3609,-2.3608,-2.3595,-2.3592,-2.3589,-2.3582,-2.358,-2.3576,-2.357,-2.357,-2.3581,-2.3582,-2.3584,-2.3586,-2.3568,0,0,0,0,0,-2.368,-2.3674,-2.3659,-2.3655,-2.3651,-2.3638,-2.3634,-2.3626,-2.3617,-2.3613,-2.3604,-2.3595,-2.3589,-2.3585,-2.3579,-2.3577,-2.3574,-2.3577,-2.3579,-2.358,-2.358,-2.3581,-2.3582,-2.3566,-2.3566,-2.3566,0,0,-2.3685,-2.3674,-2.3671,-2.3657,-2.365,-2.3644,-2.3635,-2.3629,-2.3625,-2.3612,-2.3607,-2.36,-2.359,-2.3587,-2.3585,-2.3581,-2.3585,-2.3581,-2.3582,-2.3581,-2.3581,-2.3583,-2.3585,-2.3566,-2.3566,-2.3566,0,0,-2.3691,-2.3682,-2.3678,-2.3671,-2.366,-2.3652,-2.3651,-2.3638,-2.3633,-2.3627,-2.3618,-2.3614,-2.3603,-2.3597,-2.3593,-2.36,-2.3593,-2.3598,-2.3606,-2.3606,-2.3608,-2.3609,-2.3613,-2.3614,-2.3598,-2.3598,-2.3598,0,-2.3698,-2.3688,-2.3677,-2.3672,-2.3667,-2.3656,-2.3653,-2.3647,-2.3634,-2.3632,-2.3628,-2.3616,-2.3608,-2.3605,-2.3606,-2.3603,-2.3603,-2.3599,-2.3608,-2.3609,-2.361,-2.3614,-2.3615,-2.3599,-2.3599,-2.3599,-2.3599,0,-2.3699,-2.3693,-2.3691,-2.368,-2.3675,-2.3671,-2.3661,-2.3657,-2.3651,-2.3644,-2.364,-2.3631,-2.3623,-2.3622,-2.3615,-2.3618,-2.3616,-2.3611,-2.3604,-2.3613,-2.3616,-2.3617,-2.36,-2.36,-2.36,-2.36,0,0,-2.371,-2.3695,-2.3694,-2.369,-2.3678,-2.3674,-2.3671,-2.3663,-2.3661,-2.3654,-2.3652,-2.3645,-2.364,-2.3635,-2.3628,-2.3629,-2.3637,-2.3623,-2.3623,-2.3627,-2.3641,-2.3646,-2.3648,-2.3632,-2.3633,-2.3633,-2.3643,0,-2.3715,-2.3708,-2.3699,-2.3695,-2.3691,-2.3681,-2.3679,-2.3672,-2.3666,-2.3662,-2.3656,-2.3651,-2.3645,-2.3642,-2.3642,-2.3636,-2.364,-2.3635,-2.3632,-2.3632,-2.3635,-2.3649,-2.3653,-2.3663,-2.3644,-2.3644,-2.3644,0,-2.3718,-2.3712,-2.3708,-2.3699,-2.3697,-2.3695,-2.3689,-2.3685,-2.3678,-2.3674,-2.367,-2.3663,-2.3661,-2.3655,-2.3653,-2.365,-2.3648,-2.3645,-2.3646,-2.3645,-2.3638,-2.365,-2.3665,-2.3667,-2.3645,-2.3645,-2.3645,0,-2.3729,-2.3719,-2.3716,-2.3713,-2.3702,-2.3701,-2.3696,-2.3689,-2.3686,-2.3681,-2.368,-2.3675,-2.3672,-2.3669,-2.3662,-2.3658,-2.3662,-2.3655,-2.3659,-2.366,-2.366,-2.366,-2.3677,-2.3659,-2.3658,-2.3658,-2.3658,0,-2.3734,-2.3733,-2.3721,-2.3719,-2.3718,-2.3709,-2.3708,-2.3703,-2.3697,-2.3695,-2.3687,-2.3686,-2.3676,-2.3674,-2.3668,-2.3669,-2.3667,-2.3665,-2.3664,-2.3666,-2.3666,-2.3665,-2.3664,-2.3659,-2.3659,-2.3659,-2.3659,0,-2.3745,-2.3737,-2.3734,-2.3724,-2.3722,-2.3721,-2.3714,-2.3713,-2.3707,-2.3705,-2.3704,-2.3696,-2.3693,-2.3686,-2.3682,-2.3678,-2.3681,-2.3677,-2.3683,-2.3682,-2.3688,-2.3688,-2.3704,-2.3706,-2.3686,-2.3686,-2.3686,0,-2.3749,-2.3748,-2.3739,-2.3737,-2.3733,-2.373,-2.3728,-2.3719,-2.3717,-2.3711,-2.3711,-2.3708,-2.3705,-2.3702,-2.3697,-2.3694,-2.3691,-2.3697,-2.3691,-2.3694,-2.3693,-2.3693,-2.3694,-2.3699,-2.3699,-2.3699,-2.3699,0,-2.3758,-2.3755,-2.3751,-2.3747,-2.3744,-2.374,-2.3736,-2.3735,-2.3727,-2.3725,-2.3722,-2.372,-2.3717,-2.3715,-2.3712,-2.3708,-2.3703,-2.3702,-2.3703,-2.3705,-2.3709,-2.3708,-2.3687,-2.3701,-2.3701,-2.3701,-2.3701,-2.3701,-2.3766,-2.3765,-2.376,-2.3757,-2.3753,-2.375,-2.3749,-2.3744,-2.3742,-2.3738,-2.3734,-2.3733,-2.3729,-2.3724,-2.3722,-2.3722,-2.3718,-2.372,-2.372,-2.3721,-2.3723,-2.3709,-2.3721,-2.3721,-2.3721,-2.3721,-2.3721,0,-2.3775,-2.3772,-2.3769,-2.3764,-2.3762,-2.3758,-2.3754,-2.3753,-2.3752,-2.3748,-2.3746,-2.3745,-2.3744,-2.3739,-2.3737,-2.3739,-2.3736,-2.3739,-2.3739,-2.3738,-2.3725,-2.3724,-2.3741,-2.3741,-2.3741,-2.3741,-2.3741,-2.3741,-2.378,-2.3779,-2.3776,-2.3774,-2.377,-2.3769,-2.3768,-2.3766,-2.3763,-2.3762,-2.3761,-2.3758,-2.3755,-2.3753,-2.3753,-2.3752,-2.3752,-2.3755,-2.3753,-2.3741,-2.3739,-2.3737,-2.3737,-2.3755,-2.3755,-2.3767,-2.3767,-2.3767]},{"header":{"parameterUnit":"m.s-1","parameterCategory":1,"la1":30.2991,"la2":30.254,"lo1":-89.0895,"lo2":-89.0444,"dy":0.0017,"dx":0.0017,"nx":28,"ny":28,"refTime":"2025-01-17T03:00:00:Z","depth":0,"parameterNumber":3,"parameterNumberName":"V-component_of_WINDS"},"data":[0,0,0,0,0,0,0,0,0,0,0,0,0,0,0,0,0,0,0,0,0,0,0,0,0,0,0,0,0,0,0,0,0,0,0,0,0,0,0,0,0,0,0,0,0,0,0,0,0,0,0,0,0,0,0,0,0,0,2.1934,2.1934,0,2.1936,2.1937,2.1937,2.1978,2.1979,2.198,2.1981,2.1981,2.198,2.1979,0,0,0,0,0,0,0,0,0,0,0,0,0,2.1963,2.1963,2.1934,2.1934,2.1934,2.1936,2.1937,2.1937,2.1978,2.1979,2.1981,2.1982,2.1981,2.198,2.1979,0,0,0,0,0,0,0,0,0,0,0,0,0,2.1957,2.1962,2.1934,2.1955,2.1957,2.1936,2.1937,2.1937,2.1978,2.1979,2.1981,2.1982,2.1982,2.198,2.1979,2.1937,0,0,2.1974,2.1974,0,0,0,0,0,0,0,0,2.1957,2.1955,2.1952,2.1953,2.1956,2.1959,2.1947,2.1937,2.1977,2.197,2.1981,2.1983,2.1972,2.1971,2.1968,2.1937,2.1937,2.1974,2.1973,2.1972,2.1972,0,0,0,0,0,0,0,2.1957,2.1956,2.1935,2.1952,2.1954,2.1964,2.1965,2.1945,2.1962,2.197,2.1974,2.1973,2.1973,2.197,2.1969,2.1937,2.1974,2.1973,2.1972,2.1971,2.1875,2.1874,0,0,0,0,0,0,2.1955,2.1956,2.1935,2.1935,2.196,2.1962,2.1963,2.1956,2.1962,2.1965,2.1972,2.1975,2.1971,2.197,2.1969,2.1923,2.1972,2.1971,2.197,2.1877,2.1875,2.1873,0,0,0,0,0,0,2.1956,2.1953,2.1935,2.1946,2.1945,2.196,2.1952,2.1955,2.1952,2.1963,2.1966,2.1965,2.1973,2.1971,2.1946,2.1923,2.197,2.1969,2.1879,2.1876,2.1874,2.1829,0,0,0,0,0,0,2.1956,2.1953,2.1937,2.1946,2.1944,2.1912,2.195,2.1954,2.1949,2.1954,2.1958,2.196,2.1974,2.1948,2.1944,2.1922,2.1968,2.1881,2.1878,2.1875,2.1833,2.1826,2.1819,0,0,0,0,0,2.1957,2.1924,2.1936,2.1934,2.1925,2.191,2.1909,2.1927,2.1947,2.1932,2.194,2.196,2.1926,2.1945,2.1941,2.1918,2.1882,2.1879,2.1875,2.1836,2.1827,2.182,0,0,0,0,0,0,2.1911,2.1925,2.1939,2.1907,2.1908,2.1917,2.1899,2.1916,2.191,2.1914,2.1935,2.1936,2.1908,2.191,2.1931,2.188,2.1908,2.1903,2.1879,2.1871,2.1865,2.1865,2.1967,0,0,0,0,0,2.1897,2.1885,2.1897,2.1868,2.1867,2.1883,2.1877,2.1891,2.1891,2.1891,2.1897,2.1896,2.1886,2.1878,2.1869,2.1833,2.1836,2.1816,2.1809,2.1803,2.18,2.1783,2.1775,2.1861,2.1861,2.1861,0,0,2.1868,2.1874,2.1865,2.1859,2.1861,2.1847,2.1883,2.1866,2.1857,2.1888,2.1866,2.187,2.1871,2.1841,2.1828,2.1842,2.1776,2.1799,2.1794,2.1793,2.1778,2.177,2.1763,2.1858,2.1859,2.1859,0,0,2.181,2.1812,2.1789,2.1791,2.1794,2.1805,2.1799,2.1807,2.1811,2.1789,2.1814,2.1802,2.1783,2.1783,2.178,2.1724,2.1743,2.172,2.1685,2.1669,2.1662,2.1656,2.1638,2.1631,2.1716,2.1716,2.1715,0,2.1773,2.1755,2.1775,2.1758,2.1755,2.1785,2.1762,2.1762,2.1761,2.1759,2.1775,2.1753,2.1755,2.1727,2.1713,2.171,2.1705,2.172,2.1661,2.1656,2.1651,2.1633,2.1626,2.1713,2.1713,2.1713,2.1714,0,2.1711,2.1698,2.1679,2.168,2.1674,2.1654,2.1672,2.1664,2.1678,2.1687,2.1665,2.1669,2.1663,2.1656,2.1669,2.163,2.1639,2.1658,2.1687,2.164,2.1624,2.1617,2.1709,2.171,2.1711,2.1712,0,0,2.1623,2.1637,2.1629,2.1631,2.1637,2.1627,2.1609,2.1604,2.1598,2.1596,2.1582,2.1566,2.1584,2.1581,2.1594,2.158,2.1537,2.1601,2.1601,2.159,2.1497,2.1484,2.1476,2.1549,2.1548,2.1547,2.1498,0,2.1568,2.1539,2.1558,2.1526,2.1515,2.1543,2.1528,2.153,2.1538,2.1529,2.1538,2.1528,2.1551,2.155,2.1537,2.1545,2.1519,2.1549,2.1537,2.1537,2.1538,2.1468,2.1454,2.1407,2.1491,2.149,2.1489,0,2.15,2.1498,2.1466,2.1476,2.1472,2.1458,2.1456,2.1447,2.145,2.1457,2.1455,2.1473,2.1456,2.1483,2.1461,2.1481,2.1477,2.1481,2.1479,2.148,2.1511,2.1468,2.1392,2.1385,2.148,2.148,2.1481,0,2.1442,2.1431,2.1411,2.1411,2.1422,2.1411,2.1415,2.142,2.1416,2.1414,2.1412,2.1407,2.1405,2.14,2.1416,2.1434,2.1392,2.1421,2.1398,2.1398,2.1389,2.139,2.1313,2.1384,2.1384,2.1384,2.1384,0,2.138,2.136,2.1385,2.1373,2.1351,2.1372,2.135,2.1357,2.1361,2.1351,2.1374,2.1363,2.1384,2.1376,2.1387,2.1368,2.1366,2.1372,2.1376,2.1371,2.1371,2.137,2.1374,2.1382,2.1382,2.1383,2.1383,0,2.1312,2.1328,2.1309,2.1321,2.1324,2.1307,2.1318,2.1307,2.1318,2.1304,2.1302,2.1318,2.131,2.1325,2.1317,2.1326,2.13,2.1307,2.1299,2.1302,2.128,2.1283,2.1201,2.1193,2.1267,2.1266,2.1266,0,2.1272,2.1258,2.1269,2.1265,2.1268,2.126,2.1257,2.1277,2.1273,2.1277,2.1266,2.126,2.1256,2.1241,2.1252,2.1247,2.1256,2.1228,2.1255,2.1252,2.1258,2.126,2.1259,2.1223,2.1222,2.1221,2.122,0,2.1201,2.121,2.1206,2.1204,2.1201,2.12,2.1201,2.1196,2.1217,2.1212,2.1204,2.1202,2.1196,2.119,2.1188,2.1192,2.121,2.1212,2.1207,2.1202,2.1199,2.1203,2.1286,2.1214,2.1214,2.1215,2.1215,2.1215,2.1147,2.1137,2.1144,2.1139,2.1142,2.1143,2.1134,2.1144,2.1139,2.1137,2.1148,2.1139,2.1144,2.1143,2.1145,2.1138,2.115,2.1142,2.1141,2.1139,2.1136,2.1199,2.1137,2.1137,2.1137,2.1138,2.1138,0,2.1079,2.1086,2.1081,2.1083,2.1079,2.1097,2.1099,2.1095,2.1087,2.109,2.1087,2.1079,2.1074,2.1084,2.1081,2.1073,2.1082,2.1072,2.1073,2.1074,2.1124,2.113,2.1065,2.1065,2.1065,2.1065,2.1065,2.1065,2.1043,2.1027,2.1037,2.1023,2.1029,2.1021,2.1021,2.1023,2.1026,2.1017,2.1013,2.1021,2.1027,2.1025,2.1021,2.1024,2.1023,2.101,2.1016,2.1063,2.107,2.1077,2.1083,2.1009,2.1009,2.0967,2.0967,2.0967]}]]